This demonstration page uses our WeatherBlox Daily Observations layout. Learn more.

Left ArrowRight Arrow

Hourly Observations for March 27, 2016

Temp ( °F °C ) Dew Point ( °F °C ) Humidity (%) Winds ( mph kmh ) Pressure ( in mb ) Visibility ( mi km ) Precip ( " mm )
12:15 am 00:15 Clear 28 -2 16 -9 59 59 NNW 6 9 30.27 1025 10 16 0.00 0.00
12:35 am 00:35 Clear 27 -3 18 -8 69 69 NW 6 9 30.27 1025 10 16 0.00 0.00
12:55 am 00:55 Clear 27 -3 18 -8 69 69 NW 8 13 30.27 1025 10 16 0.00 0.00
1:15 am 01:15 Clear 27 -3 16 -9 64 64 NW 9 15 30.30 1026 10 16 0.00 0.00
1:35 am 01:35 Clear 27 -3 18 -8 69 69 WNW 7 11 30.27 1025 10 16 0.00 0.00
1:55 am 01:55 Clear 25 -4 16 -9 69 69 WNW 6 9 30.33 1027 10 16 0.00 0.00
2:15 am 02:15 Clear 25 -4 16 -9 69 69 Calm 30.33 1027 10 16 0.00 0.00
2:35 am 02:35 Clear 25 -4 16 -9 69 69 W 3 6 30.30 1026 10 16 0.00 0.00
2:55 am 02:55 Clear 25 -4 16 -9 69 69 NW 6 9 30.30 1026 10 16 0.00 0.00
3:15 am 03:15 Clear 25 -4 16 -9 69 69 NW 7 11 30.24 1024 10 16 0.00 0.00
3:35 am 03:35 Clear 25 -4 14 -10 63 63 NW 9 15 30.24 1024 10 16 0.00 0.00
3:55 am 03:55 Clear 23 -5 14 -10 68 68 NW 8 13 30.27 1025 10 16 0.00 0.00
4:15 am 04:15 Clear 21 -6 12 -11 68 68 NW 8 13 30.27 1025 10 16 0.00 0.00
4:35 am 04:35 Clear 21 -6 12 -11 68 68 NW 10 17 30.27 1025 10 16 0.00 0.00
4:55 am 04:55 Clear 21 -6 12 -11 68 68 NW 9 15 30.27 1025 10 16 0.00 0.00
5:15 am 05:15 Clear 21 -6 12 -11 68 68 WNW 6 9 30.27 1025 10 16 0.00 0.00
5:35 am 05:35 Clear 19 -7 12 -11 73 73 WNW 7 11 30.27 1025 10 16 0.00 0.00
5:55 am 05:55 Clear 19 -7 12 -11 73 73 WNW 3 6 30.27 1025 10 16 0.00 0.00
6:15 am 06:15 Clear 19 -7 12 -11 73 73 WNW 5 7 30.27 1025 10 16 0.00 0.00
6:35 am 06:35 Clear 19 -7 12 -11 73 73 WNW 5 7 30.27 1025 10 16 0.00 0.00
6:55 am 06:55 Clear 19 -7 12 -11 73 73 W 3 6 30.27 1025 10 16 0.00 0.00
7:15 am 07:15 Clear 19 -7 12 -11 73 73 W 5 7 30.27 1025 10 16 0.00 0.00
7:35 am 07:35 Sunny 19 -7 12 -11 73 73 W 5 7 30.27 1025 10 16 0.00 0.00
7:55 am 07:55 Sunny 21 -6 14 -10 74 74 W 5 7 30.27 1025 10 16 0.00 0.00
8:15 am 08:15 Sunny 25 -4 16 -9 69 69 WNW 5 7 30.24 1024 10 16 0.00 0.00
8:35 am 08:35 Sunny 25 -4 18 -8 74 74 W 5 7 30.30 1026 10 16 0.00 0.00
8:55 am 08:55 Sunny 27 -3 18 -8 69 69 W 3 6 30.27 1025 10 16 0.00 0.00
9:15 am 09:15 Sunny 28 -2 19 -7 69 69 W 5 7 30.27 1025 10 16 0.00 0.00
9:35 am 09:35 Sunny 30 -1 19 -7 64 64 W 6 9 30.27 1025 10 16 0.00 0.00
9:55 am 09:55 Sunny 34 1 21 -6 60 60 W 5 7 30.21 1023 10 16 0.00 0.00
10:15 am 10:15 Sunny 36 2 21 -6 56 56 NW 7 11 30.21 1023 10 16 0.00 0.00
10:35 am 10:35 Sunny 37 3 21 -6 52 52 WNW 6 9 30.18 1022 10 16 0.00 0.00
10:55 am 10:55 Sunny 39 4 21 -6 48 48 NW 5 7 30.18 1022 10 16 0.00 0.00
11:15 am 11:15 Sunny 43 6 21 -6 42 42 W 6 9 30.21 1023 10 16 0.00 0.00
11:35 am 11:35 Sunny 43 6 21 -6 42 42 WSW 8 13 30.21 1023 10 16 0.00 0.00
11:55 am 11:55 Sunny 45 7 21 -6 39 39 W 8 13 30.15 1021 10 16 0.00 0.00
12:15 pm 12:15 Sunny 46 8 21 -6 37 37 WSW 9 15 30.15 1021 10 16 0.00 0.00
12:35 pm 12:35 Sunny 46 8 21 -6 37 37 WSW 7 11 30.15 1021 10 16 0.00 0.00
12:55 pm 12:55 Sunny 48 9 21 -6 34 34 SW 7 11 30.15 1021 10 16 0.00 0.00
1:15 pm 13:15 Sunny 50 10 21 -6 32 32 WSW 9 15 30.12 1020 10 16 0.00 0.00
1:35 pm 13:35 Sunny 52 11 19 -7 28 28 SW 6 9 30.09 1019 10 16 0.00 0.00
1:55 pm 13:55 Sunny 52 11 19 -7 28 28 WSW 7 11 30.09 1019 10 16 0.00 0.00
2:15 pm 14:15 Sunny 54 12 18 -8 24 24 WSW 10 17 30.09 1019 10 16 0.00 0.00
2:35 pm 14:35 Sunny 55 13 19 -7 24 24 W 6 9 30.03 1017 10 16 0.00 0.00
2:55 pm 14:55 Sunny 55 13 19 -7 24 24 W 8 13 30.03 1017 10 16 0.00 0.00
3:15 pm 15:15 Sunny 57 14 21 -6 25 25 W 9 15 30.03 1017 10 16 0.00 0.00
3:35 pm 15:35 Sunny 57 14 19 -7 23 23 WSW 12 19 30.00 1016 10 16 0.00 0.00
3:55 pm 15:55 Sunny 57 14 21 -6 25 25 SW 7 11 30.00 1016 10 16 0.00 0.00
4:15 pm 16:15 Sunny 59 15 19 -7 21 21 WSW 12 19 30.00 1016 10 16 0.00 0.00
4:35 pm 16:35 Sunny 59 15 21 -6 23 23 WSW 7 11 30.00 1016 10 16 0.00 0.00
4:55 pm 16:55 Sunny 59 15 19 -7 21 21 W 12 19 30.00 1016 10 16 0.00 0.00
5:15 pm 17:15 Sunny 61 16 18 -8 19 19 WSW 10 17 29.97 1015 10 16 0.00 0.00
5:35 pm 17:35 Sunny 61 16 19 -7 20 20 WNW 7 11 29.97 1015 10 16 0.00 0.00
5:55 pm 17:55 Sunny 61 16 18 -8 19 19 Calm 29.97 1015 10 16 0.00 0.00
6:15 pm 18:15 Sunny 59 15 18 -8 20 20 SW 3 6 29.97 1015 10 16 0.00 0.00
6:35 pm 18:35 Sunny 61 16 19 -7 20 20 W 3 6 29.94 1014 10 16 0.00 0.00
6:55 pm 18:55 Sunny 59 15 18 -8 20 20 Calm 29.97 1015 10 16 0.00 0.00
7:15 pm 19:15 Sunny 57 14 19 -7 23 23 WSW 6 9 29.97 1015 10 16 0.00 0.00
7:35 pm 19:35 Sunny 55 13 19 -7 24 24 SSW 5 7 29.97 1015 10 16 0.00 0.00
7:55 pm 19:55 Sunny 55 13 19 -7 24 24 S 5 7 29.97 1015 10 16 0.00 0.00
8:15 pm 20:15 Clear 54 12 19 -7 26 26 S 6 9 29.97 1015 10 16 0.00 0.00
8:35 pm 20:35 Clear 46 8 21 -6 37 37 SSE 7 11 30.03 1017 10 16 0.00 0.00
8:55 pm 20:55 Clear 46 8 21 -6 37 37 SSE 7 11 30.03 1017 10 16 0.00 0.00
9:15 pm 21:15 Clear 45 7 21 -6 39 39 SSE 6 9 30.03 1017 10 16 0.00 0.00
9:35 pm 21:35 Clear 43 6 21 -6 42 42 S 8 13 30.03 1017 10 16 0.00 0.00
9:55 pm 21:55 Clear 41 5 23 -5 49 49 S 7 11 30.03 1017 10 16 0.00 0.00
10:15 pm 22:15 Clear 39 4 23 -5 52 52 S 6 9 30.06 1018 10 16 0.00 0.00
10:35 pm 22:35 Clear 41 5 21 -6 45 45 SSW 6 9 30.03 1017 10 16 0.00 0.00
10:55 pm 22:55 Clear 39 4 19 -7 45 45 SSW 7 11 30.06 1018 10 16 0.00 0.00
11:15 pm 23:15 Clear 39 4 21 -6 48 48 SSW 9 15 30.06 1018 10 16 0.00 0.00
11:35 pm 23:35 Clear 39 4 21 -6 48 48 SSW 9 15 30.06 1018 10 16 0.00 0.00
11:55 pm 23:55 Clear 39 4 21 -6 48 48 SSW 8 13 30.06 1018 10 16 0.00 0.00

Powered by AerisWeather